METEOR 2-11 DEB

Satellite information

Favourite Embed

Satellite Type and Status

DEBRISIN ORBIT

Key statistics

Satellite METEOR 2-11 DEB at a glance.

Uptime

14977

Days in orbit

Revolutions

≈ 13.9

Per day

Orbit

LEO

Low Earth Orbit

Inclination

82.5

Latest

Satellite identification and parameters

Extended collection of information and parameters for METEOR 2-11 DEB.

Object identification

Identified? True

Debris? True

Object name: METEOR 2-11 DEB

International designator: 1984-072D

Object number (NORAD): 40318

Object ID (CCSDS): 40318

Country: COMMONWEALTH OF INDEPENDENT STATES (CIS)

Current information (Y/N): Y

RCS size: SMALL

Orbital parameters

Period: 103.24 minutes

Inclination: 82.5308 deg

SMA: 7289.98 km

Apoapsis: 926.078 km

Periapsis: 897.612 km

RAAN: 300.4953 deg

Eccentricy: 0.0019524

Argument of periapsis: 277.364 deg

Mean anomaly: 206.0392 deg

Mean motion: 13.94804193 rev/day

Mean motion (dot): 0.00000278 rev/day2

B* drag term: 0.00019564 1/REarth

Two-line elements (TLE)

Creation date: July 6, 2025, 6:05 p.m.

Reference frame: TEME

Reference center: EARTH

Epoch: July 6, 2025, 1:24 a.m. UTC

TLE line 0: 0 METEOR 2-11 DEB

TLE line 1: 1 40318U 84072D 25187.05880965 .00000278 00000-0 19564-3 0 9996

TLE line 2: 2 40318 82.5308 300.4953 0019524 277.3640 206.0392 13.94804193536949

Live tracking on map

Real-time ground track for satellite METEOR 2-11 DEB.

In-orbit conjunctions

A list of the most updated potential collisions computed for object METEOR 2-11 DEB.

Target Orbit TCA Probability of collision Miss distance Type
FENGYUN 1C DEB SSO 2025-07-09 16:10:07 0.000108747 242.0 (m) DEBRIS

Associated space launch

Second generation soviet meteorological satellite

METEOR 2-11 DEB was lifted into orbit during the mission ‘Tsiklon-3 | Meteor-2 11’, on board a Tsiklon-3 space rocket.

The launch took place on July 5, 1984, 3:35 a.m. from 32/2.

For more information about the launch, click the button.

Launch to space Tsiklon-3 | Meteor-2 11
Tsiklon-3 | Meteor-2 11

Agency: N/A

Status: Launch Successful

Launch date: July 5, 1984, 3:35 a.m. UTC

Rocket: Tsiklon-3

Launch pad: 32/2

Location: Plesetsk Cosmodrome, Russian Federation

...

Latest news about this satellite

There are no fresh news available about this satellite. Check back as we update our databases every day.


Newsletter sign-up

Weekly statistics, charts and insights to help you stay on top of the space industry.